Location: Bun Machan
(52.1403°N, 7.3744°W)
Time: 03:52:24
(UTC+00:00)

X-37B - Pass Details

Date: 25 June 2021
Orbit: 383 x 392 km, 45.0° (Epoch: 01 July)

Event Time Altitude Azimuth Distance (km) Brightness Sun altitude
Rises 23:19:39 0° 252° (WSW) 2,256 4.5 -12.8°
Reaches altitude 10° 23:21:59 10° 236° (WSW) 1,402 3.2 -12.9°
Enters shadow 23:24:02 21° 197° (SSW) 912 2.0 -13.0°
